DW7691 Weather Reports


time (UTC)temp
C
wind
direction
speed
KPH
gust
KPH
rain 1hr
cm
rain 24hr
cm
rain mn
cm
humidity
%
barometer
mb
20260906220014 32 44 0.0 4.8 0.00 0.00 0.00 35 1005.9
20260906214511 31 245 0.0 9.7 0.00 0.00 0.00 33 1006.2
20260906213010 31 255 0.0 6.4 0.00 0.00 0.00 32 1006.3
20260906211511 31 334 0.0 4.8 0.00 0.00 0.00 33 1006.5
20260906210005 30 113 0.0 1.6 0.00 0.00 0.00 36 1006.9
20260906204505 31 212 0.0 3.2 0.00 0.00 0.00 35 1007.0
20260906203003 31 103 3.2 9.7 0.00 0.00 0.00 33 1007.1
20260906201502 31 280 0.0 9.7 0.00 0.00 0.00 36 1007.2
20260906200059 31 134 0.0 4.8 0.00 0.00 0.00 36 1007.3
20260906194556 30 142 0.0 6.4 0.00 0.00 0.00 37 1007.4
20260906193053 30 51 0.0 6.4 0.00 0.00 0.00 39 1007.7
20260906191550 30 98 0.0 6.4 0.00 0.00 0.00 39 1007.8
20260906190047 28 49 3.2 11.3 0.00 0.00 0.00 43 1008.0
20260906184549 27 97 0.0 4.8 0.00 0.00 0.00 45 1008.5
20260906183040 27 347 0.0 6.4 0.00 0.00 0.00 47 1008.8
20260906181537 26 22 0.0 6.4 0.00 0.00 0.00 50 1009.0
20260906180054 26 108 0.0 4.8 0.00 0.00 0.00 53 1009.1
20260906174534 25 197 0.0 3.2 0.00 0.00 0.00 56 1009.7
20260906173026 25 98 0.0 1.6 0.00 0.00 0.00 58 1010.0
20260906171522 24 11 0.0 6.4 0.00 0.00 0.00 62 1010.1
20260906170119 23 159 0.0 4.8 0.00 0.00 0.00 63 1010.4
20260906164518 23 37 0.0 1.6 0.00 0.00 0.00 65 1010.5
20260906163015 22 149 0.0 3.2 0.00 0.00 0.00 67 1010.7
20260906161517 22 322 1.6 6.4 0.00 0.00 0.00 67 1010.5
20260906160011 22 36 0.0 4.8 0.00 0.00 0.00 69 1010.6
20260906154511 21 64 0.0 4.8 0.00 0.00 0.00 70 1010.7
20260906153008 21 7 0.0 9.7 0.00 0.00 0.00 73 1010.8
20260906151509 20 124 0.0 6.4 0.00 0.00 0.00 75 1011.0
20260906150016 19 348 0.0 3.2 0.00 0.00 0.00 77 1011.0
20260906144512 19 73 0.0 3.2 0.00 0.00 0.00 77 1011.3
20260906143006 19 347 0.0 4.8 0.00 0.00 0.00 78 1011.1
20260906141505 18 329 0.0 6.4 0.00 0.00 0.00 81 1011.2
20260906140006 17 338 0.0 3.2 0.00 0.00 0.00 83 1011.3
20260906134507 17 22 0.0 1.6 0.00 0.00 0.00 84 1011.4
20260906133003 16 315 0.0 0.0 0.00 0.00 0.00 83 1011.4
20260906131600 16 315 0.0 0.0 0.00 0.00 0.00 83 1011.3
20260906130059 16 315 0.0 3.2 0.00 0.00 0.00 82 1011.4
20260906124553 16 12 0.0 1.6 0.00 0.00 0.00 81 1011.1
20260906123052 16 44 0.0 0.0 0.00 0.00 0.00 80 1011.1
20260906121555 16 44 0.0 0.0 0.00 0.00 0.00 80 1011.0
20260906120109 16 44 0.0 0.0 0.00 0.00 0.00 78 1010.8
20260906114547 16 44 0.0 0.0 0.00 0.00 0.00 77 1010.9
20260906113051 16 44 0.0 0.0 0.00 0.00 0.00 77 1010.9
20260906111601 16 44 0.0 0.0 0.00 0.00 0.00 75 1010.8
20260906110043 16 44 0.0 0.0 0.00 0.00 0.00 75 1010.8
20260906104539 16 44 0.0 0.0 0.00 0.00 0.00 73 1010.8
20260906103037 17 44 0.0 0.0 0.00 0.00 0.00 72 1010.8
20260906101537 17 44 0.0 0.0 0.00 0.00 0.00 71 1010.8
20260906100032 17 44 0.0 0.0 0.00 0.00 0.00 71 1010.7
20260906094537 17 46 0.0 0.0 0.00 0.00 0.00 68 1010.7
20260906093035 18 46 0.0 1.6 0.00 0.00 0.00 66 1010.5
20260906091522 18 41 0.0 1.6 0.00 0.00 0.00 65 1010.3
20260906090020 18 347 0.0 1.6 0.00 0.00 0.00 65 1009.9
20260906084521 19 32 0.0 4.8 0.00 0.00 0.00 63 1009.9
20260906083017 20 63 0.0 4.8 0.00 0.00 0.00 61 1010.0
20260906081514 20 357 0.0 8.0 0.00 0.00 0.00 59 1010.1
20260906080012 20 359 1.6 6.4 0.00 0.00 0.00 57 1010.0
20260906074607 20 339 1.6 4.8 0.00 0.00 0.00 54 1010.0
20260906073005 21 1 0.0 3.2 0.00 0.00 0.00 52 1010.1
20260906071504 21 311 0.0 4.8 0.00 0.00 0.00 50 1010.1
20260906070003 21 359 0.0 1.6 0.00 0.00 0.00 50 1010.1
20260906064502 21 46 0.0 0.0 0.00 0.00 0.00 49 1010.0
20260906063101 21 311 0.0 3.2 0.00 0.00 0.00 48 1010.0
20260906061559 21 319 0.0 1.6 0.00 0.00 0.00 49 1010.0
20260906060054 21 115 0.0 0.0 0.00 0.00 0.00 47 1010.3
20260906054553 22 120 0.0 1.6 0.00 0.00 0.00 47 1010.2
20260906053054 22 120 0.0 0.0 0.00 0.00 0.00 46 1010.2
20260906051600 22 120 0.0 0.0 0.00 0.00 0.00 45 1009.9
20260906050050 22 118 0.0 1.6 0.00 0.00 0.00 44 1009.7
20260906044550 22 124 0.0 1.6 0.00 0.00 0.00 44 1009.9
20260906043050 22 232 0.0 1.6 0.00 0.00 0.00 43 1009.3
20260906041554 23 41 0.0 1.6 0.00 0.00 0.00 41 1009.0
20260906040047 23 39 0.0 1.6 0.00 0.00 0.00 39 1008.6
20260906034549 25 59 0.0 3.2 0.00 0.00 0.00 37 1008.5
20260906033047 25 44 0.0 3.2 0.00 0.00 0.00 36 1008.6
20260906031547 25 335 0.0 4.8 0.00 0.00 0.00 35 1008.3
20260906030046 25 345 0.0 4.8 0.00 0.00 0.00 36 1008.2
20260906024559 25 39 0.0 1.6 0.00 0.00 0.00 36 1007.8
20260906023044 25 340 0.0 0.0 0.00 0.00 0.00 36 1007.8
20260906021543 26 340 0.0 0.0 0.00 0.00 0.00 34 1007.8
20260906020048 26 358 0.0 0.0 0.00 0.00 0.00 32 1007.6
20260906014644 27 300 0.0 3.2 0.00 0.00 0.00 31 1007.4
20260906013044 27 316 0.0 3.2 0.00 0.00 0.00 30 1007.1
20260906011543 28 322 1.6 9.7 0.00 0.00 0.00 29 1007.1
20260906010041 29 323 4.8 19.3 0.00 0.00 0.00 28 1007.1
20260906004543 30 298 8.0 17.7 0.00 0.00 0.00 26 1007.2
20260906003049 30 329 3.2 12.9 0.00 0.00 0.00 25 1007.3
20260906001538 30 322 1.6 11.3 0.00 0.00 0.00 26 1007.0
20260906000038 30 298 0.0 8.0 0.00 0.00 0.00 26 1007.1
20260905234538 31 326 0.0 8.0 0.00 0.00 0.00 23 1007.0
20260905233038 31 356 0.0 4.8 0.00 0.00 0.00 22 1006.9
20260905231539 32 20 0.0 8.0 0.00 0.00 0.00 22 1006.9
20260905230036 32 329 0.0 4.8 0.00 0.00 0.00 21 1006.7
20260905230001 33 329 0.0 4.8 0.00 0.00 0.00 21 1006.6
20260905224536 33 34 0.0 4.8 0.00 0.00 0.00 20 1006.6
20260905223035 33 332 0.0 8.0 0.00 0.00 0.00 20 1006.6
20260905221535 33 44 0.0 4.8 0.00 0.00 0.00 20 1006.6